DMSP 5D-2 F13 DEB, 40600

Orbit data source: Space-Track

DMSP 5D-2 F13 DEB, 40600 is space debris in SSO originally from a launch on Fri, 24 Mar 1995 UTC launched from the Air Force Western Test Range (AFWTR). Debris objects in space refer to the collection of defunct objects orbiting the Earth. Examples of debris include non-operational satellites, rocket bodies, and fragments generated from explosions, collisions, or faulty payload assembly.

Loading next visibility...
Identifier
40600, 1995-015EX
Orbit
SSO
Country
Flag of USUS
Related business
Manufacturer
Unknown
Mission
Spacecraft
Bus & Motor
Unknown
Mass
Unknown
Launch date (UTC)
1995-03-24 (31 years ago)
Launch vehicle
Unknown
Launch site
Air Force Western Test Range (AFWTR)
Object type
Payload
Rocket body
Debris
Shape & HBR
Unknown shape, 0.1 m
Radar Cross Section
Small (<0.1 m²)

Expand to show TLE details & history
Last TLE update: 17 hours ago

TLE from 17 hours ago
0 DMSP 5D-2 F13 DEB
1 40600U 95015EX  25349.35979668  .00005010  00000-0  17862-2 0  9998
2 40600  98.8602  26.4260 0037367 205.6862 154.2467 14.34271638549501
Epoch: 2025-12-15T08:38Z
TLE epoch observation values (Epoch: 2025-12-15T08:38:06.433Z)
Latitude
0.00001°
Longitude
172.63971°
Altitude
804.523 km
Speed
7.439 km/s
True Right ascension
01h 45m 42s
True Declination
0° 00' 00"
Sunlit
Object was in full shadow at epoch
Visualization orbit readout
Latitude
Unknown
Longitude
Unknown
Altitude
Unknown
Speed
Unknown
Apparent Right ascension
Unknown
Apparent Declination
Unknown
Sunlit
N/A
Visualization observer readout
Local Sidereal Time
00:22:56
Azimuth
Unknown
Elevation
Unknown
Doppler factor
Unknown
Orbital elements
Apogee altitude
801.362 km
Perigee altitude
747.907 km
Semi-major axis
7,152.772 km
Eccentricity
0.00374
Inclination
98.8602°
RAAN
26.426°
Arg. of periapsis
205.6862°
True anomaly
154.43197°
Mean anomaly
154.2467°
Eccentric anomaly
154.33941°
Mean motion
3.58783 °/min
Orbital period
100.34 mins
BSTAR
0.0017862
Loading maneuver chart data...
Computing Atmospheric mass density...

Documentation

Showing up to 5 results
|